Reno, NV

10:26 PM PST on February 08, 2016 (GMT -0800)
Reno - Stead

Weather History for KRTS - May, 2013

Change the Weather History Date:

Wednesday, May 22, 2013

  Actual Average (KRNO) Record (KRNO)
Temperature  
Mean Temperature 44 °F 61 °F  
Max Temperature 55 °F 75 °F 95 °F (1967)
Min Temperature 32 °F 47 °F 19 °F (1960)
Degree Days  
Heating Degree Days 22 5  
Month to date heating degree days 166  
Since 1 July heating degree days 4828  
Cooling Degree Days 0 2  
Month to date cooling degree days 16  
Year to date cooling degree days 17  
Moisture  
Dew Point 13 °F    
Average Humidity 31    
Maximum Humidity 64    
Minimum Humidity 14    
Precipitation  
Precipitation 0.00 in 0.02 in 0.88 in (1959)
Month to date precipitation 0.34  
Year to date precipitation 3.62  
Snow  
Snow 0.00 in 0.00 in T in (1946)
Month to date snowfall 0.3  
Since 1 July snowfall 21.8  
Snow Depth -    
Sea Level Pressure  
Sea Level Pressure 29.90 in    
Wind  
Wind Speed 15 mph (NNW)    
Max Wind Speed 28 mph    
Max Gust Speed 36 mph    
Visibility 10 miles    
Events Rain    
T = Trace of Precipitation, MM = Missing Value Source: NWS Daily Summary

Daily Weather History Graph

Daily Weather History Graph

Search for Another Location

Airport or City:

Trip Planner

Search our weather history database for the weather conditions in past years. The results will help you decide how hot, cold, wet, or windy it might be!

Date:

Astronomy

May. 22, 2013 Rise Set
Actual Time 5:39 AM PDT 8:13 PM PDT
Civil Twilight 5:08 AM PDT 8:44 PM PDT
Nautical Twilight 4:29 AM PDT 9:23 PM PDT
Astronomical Twilight 3:45 AM PDT 10:07 PM PDT
Moon 5:42 PM PDT (5/22) 3:45 AM PDT (5/22)
Length of Visible Light 15h 36m
Length of Day
14h 34m
Waxing Gibbous, 92% of the Moon is Illuminated
May 22
Waxing Gibbous
May 24
Full
May 31
Last Quarter
Jun 8
New
Jun 16
First Quarter

Hourly Weather History & Observations

Time (PDT) Temp. Windchill Dew Point Humidity Pressure Visibility Wind Dir Wind Speed Gust Speed Precip Events Conditions
12:15 AM 48.2 °F - 28.4 °F 46% 29.88 in 10.0 mi West 20.7 mph 29.9 mph N/A   Clear
12:35 AM 48.2 °F - 28.4 °F 46% 29.88 in 10.0 mi West 21.9 mph 29.9 mph N/A   Clear
12:55 AM 48.2 °F - 28.4 °F 46% 29.88 in 10.0 mi West 25.3 mph 31.1 mph N/A   Clear
1:15 AM 48.2 °F - 26.6 °F 43% 29.87 in 10.0 mi West 18.4 mph 31.1 mph N/A   Clear
1:35 AM 48.2 °F - 26.6 °F 43% 29.87 in 10.0 mi West 19.6 mph 23.0 mph N/A   Clear
1:55 AM 48.2 °F - 28.4 °F 46% 29.86 in 10.0 mi WNW 16.1 mph 23.0 mph N/A   Clear
2:15 AM 46.4 °F 40.7 °F 28.4 °F 50% 29.86 in 10.0 mi West 12.7 mph 21.9 mph N/A   Clear
2:35 AM 48.2 °F - 26.6 °F 43% 29.86 in 10.0 mi West 12.7 mph - N/A   Clear
2:55 AM 46.4 °F 40.7 °F 28.4 °F 50% 29.86 in 10.0 mi WSW 12.7 mph - N/A   Clear
3:15 AM 41.0 °F 35.2 °F 26.6 °F 57% 29.86 in 10.0 mi WNW 9.2 mph - N/A   Clear
3:35 AM 41.0 °F 37.1 °F 28.4 °F 61% 29.86 in 10.0 mi West 5.8 mph - N/A   Clear
3:55 AM 39.2 °F 29.3 °F 24.8 °F 56% 29.87 in 10.0 mi NNE 20.7 mph 25.3 mph N/A   Clear
4:15 AM 35.6 °F 24.5 °F 23.0 °F 60% 29.88 in 10.0 mi North 20.7 mph 34.5 mph N/A   Clear
4:35 AM 32.0 °F 18.1 °F 21.2 °F 64% 29.88 in 10.0 mi North 27.6 mph 34.5 mph N/A   Partly Cloudy
4:55 AM 32.0 °F 19.2 °F 19.4 °F 60% 29.90 in 10.0 mi North 23.0 mph 32.2 mph N/A   Partly Cloudy
5:15 AM 32.0 °F 19.2 °F 17.6 °F 55% 29.90 in 10.0 mi North 23.0 mph 29.9 mph N/A   Scattered Clouds
5:35 AM 32.0 °F 18.6 °F 17.6 °F 55% 29.91 in 10.0 mi North 25.3 mph 35.7 mph N/A   Scattered Clouds
5:55 AM 32.0 °F 19.5 °F 17.6 °F 55% 29.92 in 10.0 mi North 21.9 mph 31.1 mph N/A   Clear
6:15 AM 32.0 °F 18.9 °F 15.8 °F 51% 29.92 in 10.0 mi North 24.2 mph 34.5 mph N/A   Clear
6:35 AM 32.0 °F 20.5 °F 15.8 °F 51% 29.93 in 10.0 mi North 18.4 mph 25.3 mph N/A   Clear
6:55 AM 32.0 °F 20.1 °F 14.0 °F 48% 29.94 in 10.0 mi NNW 19.6 mph 26.5 mph N/A   Clear
7:15 AM 32.0 °F 19.8 °F 12.2 °F 44% 29.95 in 10.0 mi North 20.7 mph 25.3 mph N/A   Clear
7:35 AM 35.6 °F 25.9 °F 10.4 °F 35% 29.95 in 10.0 mi North 16.1 mph 24.2 mph N/A   Clear
7:55 AM 35.6 °F 25.2 °F 10.4 °F 35% 29.95 in 10.0 mi North 18.4 mph - N/A   Clear
8:15 AM 37.4 °F 27.8 °F 8.6 °F 30% 29.96 in 10.0 mi North 17.3 mph 21.9 mph N/A   Clear
8:35 AM 37.4 °F 27.8 °F 6.8 °F 28% 29.96 in 10.0 mi North 17.3 mph 23.0 mph N/A   Clear
8:55 AM 39.2 °F 30.5 °F 6.8 °F 26% 29.96 in 10.0 mi North 16.1 mph 20.7 mph N/A   Clear
9:15 AM 39.2 °F 30.2 °F 6.8 °F 26% 29.96 in 10.0 mi North 17.3 mph - N/A   Clear
9:35 AM 41.0 °F 35.2 °F 6.8 °F 24% 29.96 in 10.0 mi NE 9.2 mph - N/A   Clear
9:55 AM 41.0 °F 36.4 °F 6.8 °F 24% 29.95 in 10.0 mi NNW 6.9 mph - N/A   Clear
10:15 AM 41.0 °F - 6.8 °F 24% 29.95 in 10.0 mi Calm Calm - N/A   Clear
10:35 AM 42.8 °F 40.1 °F 8.6 °F 25% 29.95 in 10.0 mi NNE 4.6 mph - N/A   Clear
10:55 AM 44.6 °F 40.7 °F 8.6 °F 23% 29.95 in 10.0 mi NNW 6.9 mph - N/A   Clear
11:15 AM 44.6 °F 40.2 °F 8.6 °F 23% 29.95 in 10.0 mi NNW 8.1 mph - N/A   Clear
11:35 AM 44.6 °F 41.4 °F 8.6 °F 23% 29.95 in 10.0 mi NNW 5.8 mph - N/A   Clear
11:55 AM 46.4 °F 42.9 °F 8.6 °F 22% 29.94 in 10.0 mi NNW 6.9 mph 18.4 mph N/A   Clear
12:15 PM 48.2 °F - 6.8 °F 19% 29.94 in 10.0 mi North 8.1 mph - N/A   Clear
12:35 PM 48.2 °F - 6.8 °F 19% 29.93 in 10.0 mi North 9.2 mph 16.1 mph N/A   Clear
12:55 PM 48.2 °F - 6.8 °F 19% 29.92 in 10.0 mi NNW 4.6 mph - N/A   Clear
1:15 PM 51.8 °F - 6.8 °F 16% 29.91 in 10.0 mi NNW 12.7 mph 21.9 mph N/A   Clear
1:35 PM 50.0 °F - 6.8 °F 17% 29.91 in 10.0 mi NNE 9.2 mph - N/A   Clear
1:55 PM 51.8 °F - 6.8 °F 16% 29.91 in 10.0 mi North 10.4 mph - N/A   Clear
2:15 PM 51.8 °F - 6.8 °F 16% 29.90 in 10.0 mi ENE 3.5 mph - N/A   Clear
2:35 PM 53.6 °F - 6.8 °F 15% 29.89 in 10.0 mi NNW 5.8 mph 17.3 mph N/A   Clear
2:55 PM 55.4 °F - 6.8 °F 14% 29.89 in 10.0 mi North 5.8 mph 17.3 mph N/A   Clear
3:15 PM 53.6 °F - 5.0 °F 14% 29.88 in 10.0 mi ENE 11.5 mph 20.7 mph N/A   Partly Cloudy
3:35 PM 53.6 °F - 5.0 °F 14% 29.88 in 10.0 mi NNE 13.8 mph 21.9 mph N/A   Partly Cloudy
3:55 PM 53.6 °F - 5.0 °F 14% 29.88 in 10.0 mi ENE 16.1 mph 20.7 mph N/A   Clear
4:15 PM 51.8 °F - 3.2 °F 14% 29.88 in 10.0 mi NE 11.5 mph - N/A   Scattered Clouds
4:35 PM 50.0 °F - 14.0 °F 24% 29.87 in 10.0 mi ESE 10.4 mph 25.3 mph N/A Rain Light Rain
4:55 PM 51.8 °F - 8.6 °F 18% 29.88 in 10.0 mi NE 4.6 mph - N/A   Clear
5:15 PM 51.8 °F - 6.8 °F 16% 29.88 in 10.0 mi East 3.5 mph - N/A   Clear
5:35 PM 53.6 °F - 6.8 °F 15% 29.88 in 10.0 mi NE 9.2 mph - N/A   Partly Cloudy
5:55 PM 53.6 °F - 5.0 °F 14% 29.88 in 10.0 mi NNE 11.5 mph - N/A   Partly Cloudy
6:15 PM 53.6 °F - 5.0 °F 14% 29.88 in 10.0 mi NNE 5.8 mph - N/A   Partly Cloudy
6:35 PM 53.6 °F - 6.8 °F 15% 29.88 in 10.0 mi North 6.9 mph - N/A   Partly Cloudy
6:55 PM 53.6 °F - 6.8 °F 15% 29.88 in 10.0 mi North 4.6 mph - N/A   Scattered Clouds
7:15 PM 51.8 °F - 8.6 °F 18% 29.88 in 10.0 mi NNW 5.8 mph - N/A   Partly Cloudy
7:35 PM 50.0 °F - 8.6 °F 19% 29.88 in 10.0 mi North 6.9 mph - N/A   Partly Cloudy
7:55 PM 50.0 °F - 10.4 °F 20% 29.88 in 10.0 mi North 8.1 mph - N/A   Clear
8:15 PM 46.4 °F 42.9 °F 10.4 °F 23% 29.88 in 10.0 mi NW 6.9 mph - N/A   Clear
8:35 PM 44.6 °F 40.2 °F 10.4 °F 25% 29.88 in 10.0 mi NW 8.1 mph - N/A   Clear
8:55 PM 44.6 °F 39.2 °F 10.4 °F 25% 29.89 in 10.0 mi NW 10.4 mph - N/A   Clear
9:15 PM 44.6 °F 40.2 °F 14.0 °F 29% 29.90 in 10.0 mi NW 8.1 mph - N/A   Clear
9:35 PM 41.0 °F 37.1 °F 14.0 °F 33% 29.90 in 10.0 mi NNW 5.8 mph - N/A   Clear
9:55 PM 41.0 °F 37.1 °F 14.0 °F 33% 29.90 in 10.0 mi NW 5.8 mph - N/A   Clear
10:15 PM 41.0 °F 34.7 °F 14.0 °F 33% 29.90 in 10.0 mi NW 10.4 mph - N/A   Clear
10:35 PM 41.0 °F 36.4 °F 12.2 °F 31% 29.90 in 10.0 mi NW 6.9 mph - N/A   Clear
10:55 PM 39.2 °F 35.9 °F 12.2 °F 33% 29.90 in 10.0 mi WNW 4.6 mph - N/A   Clear
11:15 PM 41.0 °F 38.0 °F 12.2 °F 31% 29.90 in 10.0 mi WNW 4.6 mph - N/A   Clear
11:35 PM 39.2 °F - 12.2 °F 33% 29.89 in 10.0 mi Calm Calm - N/A   Clear
11:55 PM 39.2 °F 37.0 °F 12.2 °F 33% 29.89 in 10.0 mi WNW 3.5 mph - N/A   Clear